{"data":{"norad_id":69318,"intl_designator":"2026-119Y","name":"STARLINK-37802","alt_names":[],"object_type":"PAYLOAD","status":"ACTIVE","operator":null,"country":"US","launch_date":"2026-05-30","launch_site_code":"AFWTR","launch_vehicle":null,"mission":null,"orbit_class":"UNKNOWN","rcs_meters":null,"size_class":null,"mass_kg":null,"dimensions":null,"purposes":["comms"],"wikipedia_slug":null,"has_3d_model":false,"image_url":null,"decayed_at":null,"tle_current":{"epoch":"2026-09-19T07:06:25.099776Z","epoch_age_seconds":133117,"freshness":"FRESH","line1":"1 69318U 26119Y   26262.29612384  .00019067  00000+0  59081-3 0  9997","line2":"2 69318  97.2844 287.1218 0001608  93.5455 266.5972 15.33479007 18485","mean_motion":15.33479007,"eccentricity":0.0001608,"inclination_deg":97.2844,"raan_deg":287.1218,"arg_perigee_deg":93.5455,"mean_anomaly_deg":266.5972,"bstar":0.00059081,"rev_number":1848,"period_min":93.904122157963,"perigee_km":464.34154793948,"apogee_km":466.54244294442,"semimajor_km":6843.578995442,"source":"CELESTRAK","updated_at":"2026-09-20T09:00:44.158486Z"}}}